Year,Month,Day,Hour,Minute,Value (Times are PST for temperature in C)
2011,04,23,00,00,7.30
2011,04,23,00,01,7.30
2011,04,23,00,02,7.30
2011,04,23,00,03,7.30
2011,04,23,00,04,7.30
2011,04,23,00,05,7.30
2011,04,23,00,06,7.30
2011,04,23,00,07,7.30
2011,04,23,00,08,7.30
2011,04,23,00,09,7.30
2011,04,23,00,10,7.30
2011,04,23,00,11,7.30
2011,04,23,00,12,7.30
2011,04,23,00,13,7.30
2011,04,23,00,14,7.30
2011,04,23,00,15,7.30
2011,04,23,00,16,7.30
2011,04,23,00,17,7.30
2011,04,23,00,18,7.30
2011,04,23,00,19,7.30
2011,04,23,00,20,7.40
2011,04,23,00,21,7.40
2011,04,23,00,22,7.40
2011,04,23,00,23,7.40
2011,04,23,00,24,7.50
2011,04,23,00,25,7.50
2011,04,23,00,26,7.50
2011,04,23,00,27,7.50
2011,04,23,00,28,7.50
2011,04,23,00,29,7.50
2011,04,23,00,30,7.50
2011,04,23,00,31,7.50
2011,04,23,00,32,7.40
2011,04,23,00,33,7.40
2011,04,23,00,34,7.40
2011,04,23,00,35,7.40
2011,04,23,00,36,7.40
2011,04,23,00,37,7.40
2011,04,23,00,38,7.40
2011,04,23,00,39,7.40
2011,04,23,00,40,7.30
2011,04,23,00,41,7.30
2011,04,23,00,42,7.30
2011,04,23,00,43,7.30
2011,04,23,00,44,7.30
2011,04,23,00,45,7.30
2011,04,23,00,46,7.30
2011,04,23,00,47,7.30
2011,04,23,00,48,7.30
2011,04,23,00,49,7.30
2011,04,23,00,50,7.30
2011,04,23,00,51,7.20
2011,04,23,00,52,7.20
2011,04,23,00,53,7.10
2011,04,23,00,54,7.10
2011,04,23,00,55,7.00
2011,04,23,00,56,7.00
2011,04,23,00,57,7.00
2011,04,23,00,58,6.90
2011,04,23,00,59,6.80
2011,04,23,01,00,6.80
2011,04,23,01,01,6.80
2011,04,23,01,02,6.70
2011,04,23,01,03,6.60
2011,04,23,01,04,6.60
2011,04,23,01,05,6.50
2011,04,23,01,06,6.40
2011,04,23,01,07,6.40
2011,04,23,01,08,6.60
2011,04,23,01,09,6.60
2011,04,23,01,10,6.60
2011,04,23,01,11,6.60
2011,04,23,01,12,6.60
2011,04,23,01,13,6.60
2011,04,23,01,14,6.60
2011,04,23,01,15,6.60
2011,04,23,01,16,6.60
2011,04,23,01,17,6.60
2011,04,23,01,18,6.60
2011,04,23,01,19,6.60
2011,04,23,01,20,6.40
2011,04,23,01,21,6.40
2011,04,23,01,22,6.40
2011,04,23,01,23,6.40
2011,04,23,01,24,6.40
2011,04,23,01,25,6.40
2011,04,23,01,26,6.40
2011,04,23,01,27,6.40
2011,04,23,01,28,6.40
2011,04,23,01,29,6.40
2011,04,23,01,30,6.40
2011,04,23,01,31,6.40
2011,04,23,01,32,6.40
2011,04,23,01,33,6.40
2011,04,23,01,34,6.40
2011,04,23,01,35,6.40
2011,04,23,01,36,6.40
2011,04,23,01,37,6.40
2011,04,23,01,38,6.40
2011,04,23,01,39,6.40
2011,04,23,01,40,6.30
2011,04,23,01,41,6.30
2011,04,23,01,42,6.20
2011,04,23,01,43,6.20
2011,04,23,01,44,6.10
2011,04,23,01,45,6.00
2011,04,23,01,46,6.00
2011,04,23,01,47,6.00
2011,04,23,01,48,5.90
2011,04,23,01,49,5.90
2011,04,23,01,50,5.90
2011,04,23,01,51,5.80
2011,04,23,01,52,5.80
2011,04,23,01,53,5.80
2011,04,23,01,54,5.80
2011,04,23,01,55,5.80
2011,04,23,01,56,5.80
2011,04,23,01,57,5.80
2011,04,23,01,58,5.80
2011,04,23,01,59,5.90
2011,04,23,02,00,5.90
2011,04,23,02,01,5.90
2011,04,23,02,02,5.90
2011,04,23,02,03,5.90
2011,04,23,02,04,5.90
2011,04,23,02,05,5.90
2011,04,23,02,06,5.90
2011,04,23,02,07,5.90
2011,04,23,02,08,5.90
2011,04,23,02,09,5.90
2011,04,23,02,10,5.90
2011,04,23,02,11,5.90
2011,04,23,02,12,5.80
2011,04,23,02,13,5.80
2011,04,23,02,14,5.80
2011,04,23,02,15,5.70
2011,04,23,02,16,5.70
2011,04,23,02,17,5.70
2011,04,23,02,18,5.70
2011,04,23,02,19,5.80
2011,04,23,02,20,5.90
2011,04,23,02,21,5.90
2011,04,23,02,22,6.00
2011,04,23,02,23,6.10
2011,04,23,02,24,6.10
2011,04,23,02,25,6.20
2011,04,23,02,26,6.20
2011,04,23,02,27,6.20
2011,04,23,02,28,6.20
2011,04,23,02,29,6.20
2011,04,23,02,30,6.20
2011,04,23,02,31,6.20
2011,04,23,02,32,6.20
2011,04,23,02,33,6.20
2011,04,23,02,34,6.20
2011,04,23,02,35,6.20
2011,04,23,02,36,6.20
2011,04,23,02,37,6.20
2011,04,23,02,38,6.10
2011,04,23,02,39,6.10
2011,04,23,02,40,6.10
2011,04,23,02,41,6.10
2011,04,23,02,42,6.00
2011,04,23,02,43,6.00
2011,04,23,02,44,6.00
2011,04,23,02,45,6.00
2011,04,23,02,46,5.90
2011,04,23,02,47,5.90
2011,04,23,02,48,5.90
2011,04,23,02,49,5.80
2011,04,23,02,50,5.80
2011,04,23,02,51,5.80
2011,04,23,02,52,5.70
2011,04,23,02,53,5.70
2011,04,23,02,54,5.70
2011,04,23,02,55,5.70
2011,04,23,02,56,5.60
2011,04,23,02,57,5.60
2011,04,23,02,58,5.60
2011,04,23,02,59,5.50
2011,04,23,03,00,5.50
2011,04,23,03,01,5.40
2011,04,23,03,02,5.40
2011,04,23,03,03,5.30
2011,04,23,03,04,5.30
2011,04,23,03,05,5.30
2011,04,23,03,06,5.30
2011,04,23,03,07,5.20
2011,04,23,03,08,5.20
2011,04,23,03,09,5.20
2011,04,23,03,10,5.20
2011,04,23,03,11,5.20
2011,04,23,03,12,5.10
2011,04,23,03,13,5.10
2011,04,23,03,14,5.10
2011,04,23,03,15,5.20
2011,04,23,03,16,5.20
2011,04,23,03,17,5.20
2011,04,23,03,18,5.20
2011,04,23,03,19,5.30
2011,04,23,03,20,5.30
2011,04,23,03,21,5.40
2011,04,23,03,22,5.40
2011,04,23,03,23,5.50
2011,04,23,03,24,5.50
2011,04,23,03,25,5.60
2011,04,23,03,26,5.60
2011,04,23,03,27,5.60
2011,04,23,03,28,5.70
2011,04,23,03,29,5.70
2011,04,23,03,30,5.70
2011,04,23,03,31,5.70
2011,04,23,03,32,5.70
2011,04,23,03,33,5.70
2011,04,23,03,34,5.70
2011,04,23,03,35,5.70
2011,04,23,03,36,5.70
2011,04,23,03,37,5.70
2011,04,23,03,38,5.70
2011,04,23,03,39,5.70
2011,04,23,03,40,5.70
2011,04,23,03,41,5.70
2011,04,23,03,42,5.70
2011,04,23,03,43,5.70
2011,04,23,03,44,5.70
2011,04,23,03,45,5.70
2011,04,23,03,46,5.70
2011,04,23,03,47,5.70
2011,04,23,03,48,5.70
2011,04,23,03,49,5.70
2011,04,23,03,50,5.70
2011,04,23,03,51,5.70
2011,04,23,03,52,5.70
2011,04,23,03,53,5.70
2011,04,23,03,54,5.70
2011,04,23,03,55,5.70
2011,04,23,03,56,5.80
2011,04,23,03,57,5.80
2011,04,23,03,58,5.80
2011,04,23,03,59,5.80
2011,04,23,04,00,5.80
2011,04,23,04,01,5.80
2011,04,23,04,02,5.80
2011,04,23,04,03,5.80
2011,04,23,04,04,5.80
2011,04,23,04,05,5.80
2011,04,23,04,06,5.80
2011,04,23,04,07,5.80
2011,04,23,04,08,5.80
2011,04,23,04,09,5.80
2011,04,23,04,10,5.80
2011,04,23,04,11,5.80
2011,04,23,04,12,5.90
2011,04,23,04,13,5.90
2011,04,23,04,14,5.90
2011,04,23,04,15,5.90
2011,04,23,04,16,5.90
2011,04,23,04,17,6.00
2011,04,23,04,18,6.00
2011,04,23,04,19,6.00
2011,04,23,04,20,6.00
2011,04,23,04,21,6.00
2011,04,23,04,22,6.00
2011,04,23,04,23,6.00
2011,04,23,04,24,6.00
2011,04,23,04,25,6.00
2011,04,23,04,26,6.10
2011,04,23,04,27,6.10
2011,04,23,04,28,6.10
2011,04,23,04,29,6.10
2011,04,23,04,30,6.00
2011,04,23,04,31,6.00
2011,04,23,04,32,6.00
2011,04,23,04,33,6.00
2011,04,23,04,34,6.00
2011,04,23,04,35,6.00
2011,04,23,04,36,6.10
2011,04,23,04,37,6.10
2011,04,23,04,38,6.10
2011,04,23,04,39,6.10
2011,04,23,04,40,6.10
2011,04,23,04,41,6.10
2011,04,23,04,42,6.20
2011,04,23,04,43,6.20
2011,04,23,04,44,6.20
2011,04,23,04,45,6.20
2011,04,23,04,46,6.20
2011,04,23,04,47,6.20
2011,04,23,04,48,6.20
2011,04,23,04,49,6.20
2011,04,23,04,50,6.20
2011,04,23,04,51,6.20
2011,04,23,04,52,6.20
2011,04,23,04,53,6.20
2011,04,23,04,54,6.20
2011,04,23,04,55,6.20
2011,04,23,04,56,6.20
2011,04,23,04,57,6.10
2011,04,23,04,58,6.10
2011,04,23,04,59,6.10
2011,04,23,05,00,6.10
2011,04,23,05,01,6.10
2011,04,23,05,02,6.10
2011,04,23,05,03,6.10
2011,04,23,05,04,6.10
2011,04,23,05,05,6.10
2011,04,23,05,06,6.10
2011,04,23,05,07,6.10
2011,04,23,05,08,6.10
2011,04,23,05,09,6.00
2011,04,23,05,10,6.00
2011,04,23,05,11,6.00
2011,04,23,05,12,6.00
2011,04,23,05,13,6.00
2011,04,23,05,14,6.00
2011,04,23,05,15,6.00
2011,04,23,05,16,6.00
2011,04,23,05,17,6.00
2011,04,23,05,18,6.00
2011,04,23,05,19,6.00
2011,04,23,05,20,6.00
2011,04,23,05,21,6.00
2011,04,23,05,22,6.00
2011,04,23,05,23,6.00
2011,04,23,05,24,6.00
2011,04,23,05,25,6.10
2011,04,23,05,26,6.10
2011,04,23,05,27,6.10
2011,04,23,05,28,6.10
2011,04,23,05,29,6.10
2011,04,23,05,30,6.20
2011,04,23,05,31,6.10
2011,04,23,05,32,6.10
2011,04,23,05,33,6.10
2011,04,23,05,34,6.10
2011,04,23,05,35,6.10
2011,04,23,05,36,6.10
2011,04,23,05,37,6.10
2011,04,23,05,38,6.10
2011,04,23,05,39,6.10
2011,04,23,05,40,6.10
2011,04,23,05,41,6.10
2011,04,23,05,42,6.10
2011,04,23,05,43,6.10
2011,04,23,05,44,6.10
2011,04,23,05,45,6.10
2011,04,23,05,46,6.10
2011,04,23,05,47,6.10
2011,04,23,05,48,6.10
2011,04,23,05,49,6.10
2011,04,23,05,50,6.10
2011,04,23,05,51,6.10
2011,04,23,05,52,6.10
2011,04,23,05,53,6.10
2011,04,23,05,54,6.10
2011,04,23,05,55,6.00
2011,04,23,05,56,6.10
2011,04,23,05,57,6.10
2011,04,23,05,58,6.10
2011,04,23,05,59,6.10
2011,04,23,06,00,6.10
2011,04,23,06,01,6.00
2011,04,23,06,02,6.00
2011,04,23,06,03,6.00
2011,04,23,06,04,6.00
2011,04,23,06,05,6.10
2011,04,23,06,06,6.10
2011,04,23,06,07,6.10
2011,04,23,06,08,6.10
2011,04,23,06,09,6.10
2011,04,23,06,10,6.10
2011,04,23,06,11,6.10
2011,04,23,06,12,6.00
2011,04,23,06,13,6.00
2011,04,23,06,14,6.00
2011,04,23,06,15,6.00
2011,04,23,06,16,6.10
2011,04,23,06,17,6.10
2011,04,23,06,18,6.10
2011,04,23,06,19,6.10
2011,04,23,06,20,6.10
2011,04,23,06,21,6.10
2011,04,23,06,22,6.10
2011,04,23,06,23,6.10
2011,04,23,06,24,6.10
2011,04,23,06,25,6.20
2011,04,23,06,26,6.20
2011,04,23,06,27,6.20
2011,04,23,06,28,6.20
2011,04,23,06,29,6.20
2011,04,23,06,30,6.20
2011,04,23,06,31,6.20
2011,04,23,06,32,6.20
2011,04,23,06,33,6.20
2011,04,23,06,34,6.20
2011,04,23,06,35,6.20
2011,04,23,06,36,6.20
2011,04,23,06,37,6.20
2011,04,23,06,38,6.20
2011,04,23,06,39,6.20
2011,04,23,06,40,6.20
2011,04,23,06,41,6.20
2011,04,23,06,42,6.20
2011,04,23,06,43,6.30
2011,04,23,06,44,6.30
2011,04,23,06,45,6.30
2011,04,23,06,46,6.30
2011,04,23,06,47,6.40
2011,04,23,06,48,6.40
2011,04,23,06,49,6.40
2011,04,23,06,50,6.40
2011,04,23,06,51,6.40
2011,04,23,06,52,6.40
2011,04,23,06,53,6.40
2011,04,23,06,54,6.40
2011,04,23,06,55,6.40
2011,04,23,06,56,6.40
2011,04,23,06,57,6.40
2011,04,23,06,58,6.40
2011,04,23,06,59,6.40
2011,04,23,07,00,6.40
2011,04,23,07,01,6.60
2011,04,23,07,02,6.60
2011,04,23,07,03,6.60
2011,04,23,07,04,6.60
2011,04,23,07,05,6.60
2011,04,23,07,06,6.60
2011,04,23,07,07,6.60
2011,04,23,07,08,6.60
2011,04,23,07,09,6.70
2011,04,23,07,10,6.70
2011,04,23,07,11,6.70
2011,04,23,07,12,6.70
2011,04,23,07,13,6.80
2011,04,23,07,14,6.80
2011,04,23,07,15,6.80
2011,04,23,07,16,6.80
2011,04,23,07,17,6.80
2011,04,23,07,18,6.80
2011,04,23,07,19,6.90
2011,04,23,07,20,6.90
2011,04,23,07,21,7.00
2011,04,23,07,22,7.00
2011,04,23,07,23,7.00
2011,04,23,07,24,7.00
2011,04,23,07,25,7.10
2011,04,23,07,26,7.10
2011,04,23,07,27,7.10
2011,04,23,07,28,7.20
2011,04,23,07,29,7.20
2011,04,23,07,30,7.20
2011,04,23,07,31,7.30
2011,04,23,07,32,7.30
2011,04,23,07,33,7.30
2011,04,23,07,34,7.30
2011,04,23,07,35,7.30
2011,04,23,07,36,7.30
2011,04,23,07,37,7.40
2011,04,23,07,38,7.40
2011,04,23,07,39,7.50
2011,04,23,07,40,7.50
2011,04,23,07,41,7.60
2011,04,23,07,42,7.60
2011,04,23,07,43,7.60
2011,04,23,07,44,7.70
2011,04,23,07,45,7.70
2011,04,23,07,46,7.80
2011,04,23,07,47,7.80
2011,04,23,07,48,7.80
2011,04,23,07,49,7.80
2011,04,23,07,50,7.80
2011,04,23,07,51,7.80
2011,04,23,07,52,7.90
2011,04,23,07,53,7.90
2011,04,23,07,54,7.90
2011,04,23,07,55,7.90
2011,04,23,07,56,7.90
2011,04,23,07,57,8.00
2011,04,23,07,58,8.00
2011,04,23,07,59,8.00
2011,04,23,08,00,8.10
2011,04,23,08,01,8.10
2011,04,23,08,02,8.10
2011,04,23,08,03,8.10
2011,04,23,08,04,8.10
2011,04,23,08,05,8.10
2011,04,23,08,06,8.20
2011,04,23,08,07,8.20
2011,04,23,08,08,8.20
2011,04,23,08,09,8.20
2011,04,23,08,10,8.20
2011,04,23,08,11,8.20
2011,04,23,08,12,8.20
2011,04,23,08,13,8.20
2011,04,23,08,14,8.20
2011,04,23,08,15,8.20
2011,04,23,08,16,8.20
2011,04,23,08,17,8.20
2011,04,23,08,18,8.20
2011,04,23,08,19,8.20
2011,04,23,08,20,8.20
2011,04,23,08,21,8.30
2011,04,23,08,22,8.30
2011,04,23,08,23,8.30
2011,04,23,08,24,8.40
2011,04,23,08,25,8.40
2011,04,23,08,26,8.40
2011,04,23,08,27,8.40
2011,04,23,08,28,8.40
2011,04,23,08,29,8.30
2011,04,23,08,30,8.30
2011,04,23,08,31,8.30
2011,04,23,08,32,8.30
2011,04,23,08,33,8.40
2011,04,23,08,34,8.40
2011,04,23,08,35,8.50
2011,04,23,08,36,8.50
2011,04,23,08,37,8.50
2011,04,23,08,38,8.50
2011,04,23,08,39,8.50
2011,04,23,08,40,8.50
2011,04,23,08,41,8.40
2011,04,23,08,42,8.50
2011,04,23,08,43,8.50
2011,04,23,08,44,8.60
2011,04,23,08,45,8.60
2011,04,23,08,46,8.60
2011,04,23,08,47,8.70
2011,04,23,08,48,8.70
2011,04,23,08,49,8.70
2011,04,23,08,50,8.80
2011,04,23,08,51,8.80
2011,04,23,08,52,8.80
2011,04,23,08,53,8.80
2011,04,23,08,54,8.90
2011,04,23,08,55,8.90
2011,04,23,08,56,9.00
2011,04,23,08,57,9.00
2011,04,23,08,58,9.00
2011,04,23,08,59,9.00
2011,04,23,09,00,9.00
2011,04,23,09,01,8.90
2011,04,23,09,02,8.90
2011,04,23,09,03,8.90
2011,04,23,09,04,8.90
2011,04,23,09,05,8.90
2011,04,23,09,06,9.00
2011,04,23,09,07,9.00
2011,04,23,09,08,9.00
2011,04,23,09,09,9.10
2011,04,23,09,10,9.10
2011,04,23,09,11,9.10
2011,04,23,09,12,9.10
2011,04,23,09,13,9.10
2011,04,23,09,14,9.00
2011,04,23,09,15,9.00
2011,04,23,09,16,8.90
2011,04,23,09,17,8.90
2011,04,23,09,18,8.90
2011,04,23,09,19,8.90
2011,04,23,09,20,9.00
2011,04,23,09,21,9.00
2011,04,23,09,22,9.10
2011,04,23,09,23,9.10
2011,04,23,09,24,9.10
2011,04,23,09,25,9.10
2011,04,23,09,26,9.10
2011,04,23,09,27,9.10
2011,04,23,09,28,9.10
2011,04,23,09,29,9.10
2011,04,23,09,30,9.20
2011,04,23,09,31,9.20
2011,04,23,09,32,9.20
2011,04,23,09,33,9.20
2011,04,23,09,34,9.20
2011,04,23,09,35,9.20
2011,04,23,09,36,9.20
2011,04,23,09,37,9.20
2011,04,23,09,38,9.20
2011,04,23,09,39,9.30
2011,04,23,09,40,9.30
2011,04,23,09,41,9.30
2011,04,23,09,42,9.30
2011,04,23,09,43,9.40
2011,04,23,09,44,9.40
2011,04,23,09,45,9.40
2011,04,23,09,46,9.30
2011,04,23,09,47,9.30
2011,04,23,09,48,9.30
2011,04,23,09,49,9.40
2011,04,23,09,50,9.40
2011,04,23,09,51,9.50
2011,04,23,09,52,9.50
2011,04,23,09,53,9.40
2011,04,23,09,54,9.40
2011,04,23,09,55,9.30
2011,04,23,09,56,9.30
2011,04,23,09,57,9.30
2011,04,23,09,58,9.40
2011,04,23,09,59,9.40
2011,04,23,10,00,9.50
2011,04,23,10,01,9.60
2011,04,23,10,02,9.70
2011,04,23,10,03,9.70
2011,04,23,10,04,9.80
2011,04,23,10,05,9.90
2011,04,23,10,06,9.90
2011,04,23,10,07,10.00
2011,04,23,10,08,10.10
2011,04,23,10,09,10.10
2011,04,23,10,10,10.10
2011,04,23,10,11,10.10
2011,04,23,10,12,10.10
2011,04,23,10,13,10.10
2011,04,23,10,14,10.10
2011,04,23,10,15,10.20
2011,04,23,10,16,10.30
2011,04,23,10,17,10.40
2011,04,23,10,18,10.40
2011,04,23,10,19,10.50
2011,04,23,10,20,10.60
2011,04,23,10,21,10.60
2011,04,23,10,22,10.60
2011,04,23,10,23,10.50
2011,04,23,10,24,10.40
2011,04,23,10,25,10.40
2011,04,23,10,26,10.30
2011,04,23,10,27,10.30
2011,04,23,10,28,10.30
2011,04,23,10,29,10.40
2011,04,23,10,30,10.30
2011,04,23,10,31,10.30
2011,04,23,10,32,10.40
2011,04,23,10,33,10.40
2011,04,23,10,34,10.40
2011,04,23,10,35,10.40
2011,04,23,10,36,10.40
2011,04,23,10,37,10.40
2011,04,23,10,38,10.40
2011,04,23,10,39,10.40
2011,04,23,10,40,10.40
2011,04,23,10,41,10.40
2011,04,23,10,42,10.40
2011,04,23,10,43,10.40
2011,04,23,10,44,10.40
2011,04,23,10,45,10.60
2011,04,23,10,46,10.60
2011,04,23,10,47,10.60
2011,04,23,10,48,10.60
2011,04,23,10,49,10.70
2011,04,23,10,50,10.70
2011,04,23,10,51,10.60
2011,04,23,10,52,10.50
2011,04,23,10,53,10.40
2011,04,23,10,54,10.40
2011,04,23,10,55,10.50
2011,04,23,10,56,10.60
2011,04,23,10,57,10.60
2011,04,23,10,58,10.60
2011,04,23,10,59,10.60
2011,04,23,11,00,10.60
2011,04,23,11,01,10.50
2011,04,23,11,02,10.40
2011,04,23,11,03,10.50
2011,04,23,11,04,10.60
2011,04,23,11,05,10.60
2011,04,23,11,06,10.70
2011,04,23,11,07,10.80
2011,04,23,11,08,10.90
2011,04,23,11,09,10.90
2011,04,23,11,10,11.10
2011,04,23,11,11,11.10
2011,04,23,11,12,11.10
2011,04,23,11,13,11.00
2011,04,23,11,14,10.90
2011,04,23,11,15,10.90
2011,04,23,11,16,10.90
2011,04,23,11,17,10.90
2011,04,23,11,18,11.00
2011,04,23,11,19,11.10
2011,04,23,11,20,11.10
2011,04,23,11,21,11.00
2011,04,23,11,22,10.90
2011,04,23,11,23,10.90
2011,04,23,11,24,10.90
2011,04,23,11,25,10.90
2011,04,23,11,26,10.90
2011,04,23,11,27,10.80
2011,04,23,11,28,10.90
2011,04,23,11,29,10.90
2011,04,23,11,30,10.80
2011,04,23,11,31,10.80
2011,04,23,11,32,10.80
2011,04,23,11,33,10.80
2011,04,23,11,34,10.90
2011,04,23,11,35,10.90
2011,04,23,11,36,11.00
2011,04,23,11,37,11.10
2011,04,23,11,38,11.20
2011,04,23,11,39,11.20
2011,04,23,11,40,11.30
2011,04,23,11,41,11.40
2011,04,23,11,42,11.50
2011,04,23,11,43,11.60
2011,04,23,11,44,11.70
2011,04,23,11,45,11.80
2011,04,23,11,46,11.80
2011,04,23,11,47,11.80
2011,04,23,11,48,11.80
2011,04,23,11,49,11.80
2011,04,23,11,50,11.80
2011,04,23,11,51,11.80
2011,04,23,11,52,11.80
2011,04,23,11,53,11.80
2011,04,23,11,54,11.80
2011,04,23,11,55,11.80
2011,04,23,11,56,11.80
2011,04,23,11,57,11.80
2011,04,23,11,58,11.80
2011,04,23,11,59,11.80
2011,04,23,12,00,11.80
2011,04,23,12,01,11.80
2011,04,23,12,02,11.80
2011,04,23,12,03,11.90
2011,04,23,12,04,11.90
2011,04,23,12,05,12.00
2011,04,23,12,06,12.10
2011,04,23,12,07,12.20
2011,04,23,12,08,12.30
2011,04,23,12,09,12.30
2011,04,23,12,10,12.30
2011,04,23,12,11,12.30
2011,04,23,12,12,12.30
2011,04,23,12,13,12.30
2011,04,23,12,14,12.30
2011,04,23,12,15,12.40
2011,04,23,12,16,12.50
2011,04,23,12,17,12.50
2011,04,23,12,18,12.60
2011,04,23,12,19,12.70
2011,04,23,12,20,12.80
2011,04,23,12,21,12.80
2011,04,23,12,22,12.80
2011,04,23,12,23,12.70
2011,04,23,12,24,12.60
2011,04,23,12,25,12.50
2011,04,23,12,26,12.50
2011,04,23,12,27,12.50
2011,04,23,12,28,12.40
2011,04,23,12,29,12.50
2011,04,23,12,30,12.60
2011,04,23,12,31,12.60
2011,04,23,12,32,12.70
2011,04,23,12,33,12.60
2011,04,23,12,34,12.60
2011,04,23,12,35,12.60
2011,04,23,12,36,12.70
2011,04,23,12,37,12.70
2011,04,23,12,38,12.80
2011,04,23,12,39,12.80
2011,04,23,12,40,12.90
2011,04,23,12,41,12.90
2011,04,23,12,42,13.00
2011,04,23,12,43,13.00
2011,04,23,12,44,13.10
2011,04,23,12,45,13.10
2011,04,23,12,46,13.20
2011,04,23,12,47,13.20
2011,04,23,12,48,13.30
2011,04,23,12,49,13.30
2011,04,23,12,50,13.20
2011,04,23,12,51,13.10
2011,04,23,12,52,13.00
2011,04,23,12,53,13.00
2011,04,23,12,54,13.00
2011,04,23,12,55,13.00
2011,04,23,12,56,13.00
2011,04,23,12,57,13.00
2011,04,23,12,58,13.10
2011,04,23,12,59,13.10
2011,04,23,13,00,13.20
2011,04,23,13,01,13.30
2011,04,23,13,02,13.40
2011,04,23,13,03,13.50
2011,04,23,13,04,13.60
2011,04,23,13,05,13.60
2011,04,23,13,06,13.70
2011,04,23,13,07,13.70
2011,04,23,13,08,13.80
2011,04,23,13,09,13.90
2011,04,23,13,10,14.00
2011,04,23,13,11,14.00
2011,04,23,13,12,14.10
2011,04,23,13,13,14.20
2011,04,23,13,14,14.20
2011,04,23,13,15,14.20
2011,04,23,13,16,14.20
2011,04,23,13,17,14.20
2011,04,23,13,18,14.20
2011,04,23,13,19,14.20
2011,04,23,13,20,14.20
2011,04,23,13,21,14.30
2011,04,23,13,22,14.30
2011,04,23,13,23,14.30
2011,04,23,13,24,14.30
2011,04,23,13,25,14.40
2011,04,23,13,26,14.40
2011,04,23,13,27,14.40
2011,04,23,13,28,14.50
2011,04,23,13,29,14.50
2011,04,23,13,30,14.50
2011,04,23,13,31,14.60
2011,04,23,13,32,14.60
2011,04,23,13,33,14.60
2011,04,23,13,34,14.60
2011,04,23,13,35,14.60
2011,04,23,13,36,14.60
2011,04,23,13,37,14.70
2011,04,23,13,38,14.70
2011,04,23,13,39,14.70
2011,04,23,13,40,14.70
2011,04,23,13,41,14.80
2011,04,23,13,42,14.80
2011,04,23,13,43,14.90
2011,04,23,13,44,14.90
2011,04,23,13,45,14.90
2011,04,23,13,46,15.00
2011,04,23,13,47,15.10
2011,04,23,13,48,15.10
2011,04,23,13,49,15.20
2011,04,23,13,50,15.20
2011,04,23,13,51,15.20
2011,04,23,13,52,15.10
2011,04,23,13,53,15.10
2011,04,23,13,54,15.10
2011,04,23,13,55,15.10
2011,04,23,13,56,15.20
2011,04,23,13,57,15.20
2011,04,23,13,58,15.30
2011,04,23,13,59,15.20
2011,04,23,14,00,15.30
2011,04,23,14,01,15.30
2011,04,23,14,02,15.30
2011,04,23,14,03,15.30
2011,04,23,14,04,15.30
2011,04,23,14,05,15.30
2011,04,23,14,06,15.30
2011,04,23,14,07,15.30
2011,04,23,14,08,15.30
2011,04,23,14,09,15.30
2011,04,23,14,10,15.30
2011,04,23,14,11,15.30
2011,04,23,14,12,15.30
2011,04,23,14,13,15.40
2011,04,23,14,14,15.40
2011,04,23,14,15,15.50
2011,04,23,14,16,15.50
2011,04,23,14,17,15.60
2011,04,23,14,18,15.60
2011,04,23,14,19,15.60
2011,04,23,14,20,15.70
2011,04,23,14,21,15.70
2011,04,23,14,22,15.70
2011,04,23,14,23,15.70
2011,04,23,14,24,15.60
2011,04,23,14,25,15.60
2011,04,23,14,26,15.60
2011,04,23,14,27,15.70
2011,04,23,14,28,15.60
2011,04,23,14,29,15.60
2011,04,23,14,30,15.60
2011,04,23,14,31,15.60
2011,04,23,14,32,15.50
2011,04,23,14,33,15.50
2011,04,23,14,34,15.40
2011,04,23,14,35,15.40
2011,04,23,14,36,15.40
2011,04,23,14,37,15.40
2011,04,23,14,38,15.30
2011,04,23,14,39,15.30
2011,04,23,14,40,15.30
2011,04,23,14,41,15.30
2011,04,23,14,42,15.30
2011,04,23,14,43,15.40
2011,04,23,14,44,15.50
2011,04,23,14,45,15.60
2011,04,23,14,46,15.60
2011,04,23,14,47,15.70
2011,04,23,14,48,15.70
2011,04,23,14,49,15.70
2011,04,23,14,50,15.70
2011,04,23,14,51,15.80
2011,04,23,14,52,15.80
2011,04,23,14,53,15.90
2011,04,23,14,54,16.00
2011,04,23,14,55,16.10
2011,04,23,14,56,16.20
2011,04,23,14,57,16.30
2011,04,23,14,58,16.30
2011,04,23,14,59,16.40
2011,04,23,15,00,16.50
2011,04,23,15,01,16.60
2011,04,23,15,02,16.70
2011,04,23,15,03,16.70
2011,04,23,15,04,16.70
2011,04,23,15,05,16.70
2011,04,23,15,06,16.70
2011,04,23,15,07,16.60
2011,04,23,15,08,16.50
2011,04,23,15,09,16.40
2011,04,23,15,10,16.40
2011,04,23,15,11,16.40
2011,04,23,15,12,16.40
2011,04,23,15,13,16.30
2011,04,23,15,14,16.10
2011,04,23,15,15,15.90
2011,04,23,15,16,15.80
2011,04,23,15,17,15.70
2011,04,23,15,18,15.80
2011,04,23,15,19,15.80
2011,04,23,15,20,15.90
2011,04,23,15,21,16.10
2011,04,23,15,22,16.20
2011,04,23,15,23,16.30
2011,04,23,15,24,16.40
2011,04,23,15,25,16.50
2011,04,23,15,26,16.70
2011,04,23,15,27,16.70
2011,04,23,15,28,16.80
2011,04,23,15,29,16.80
2011,04,23,15,30,16.90
2011,04,23,15,31,16.90
2011,04,23,15,32,16.90
2011,04,23,15,33,16.90
2011,04,23,15,34,17.00
2011,04,23,15,35,17.00
2011,04,23,15,36,16.80
2011,04,23,15,37,16.70
2011,04,23,15,38,16.70
2011,04,23,15,39,16.70
2011,04,23,15,40,16.70
2011,04,23,15,41,16.70
2011,04,23,15,42,16.70
2011,04,23,15,43,16.70
2011,04,23,15,44,16.70
2011,04,23,15,45,16.70
2011,04,23,15,46,16.70
2011,04,23,15,47,16.60
2011,04,23,15,48,16.70
2011,04,23,15,49,16.70
2011,04,23,15,50,16.70
2011,04,23,15,51,16.70
2011,04,23,15,52,16.80
2011,04,23,15,53,16.90
2011,04,23,15,54,16.90
2011,04,23,15,55,16.90
2011,04,23,15,56,17.00
2011,04,23,15,57,17.00
2011,04,23,15,58,17.10
2011,04,23,15,59,17.20
2011,04,23,16,00,17.30
2011,04,23,16,01,17.30
2011,04,23,16,02,17.30
2011,04,23,16,03,17.40
2011,04,23,16,04,17.40
2011,04,23,16,05,17.40
2011,04,23,16,06,17.40
2011,04,23,16,07,17.30
2011,04,23,16,08,17.20
2011,04,23,16,09,17.10
2011,04,23,16,10,17.10
2011,04,23,16,11,17.10
2011,04,23,16,12,17.10
2011,04,23,16,13,17.10
2011,04,23,16,14,17.10
2011,04,23,16,15,17.10
2011,04,23,16,16,17.20
2011,04,23,16,17,17.20
2011,04,23,16,18,17.20
2011,04,23,16,19,17.20
2011,04,23,16,20,17.30
2011,04,23,16,21,17.30
2011,04,23,16,22,17.30
2011,04,23,16,23,17.20
2011,04,23,16,24,17.10
2011,04,23,16,25,17.00
2011,04,23,16,26,16.90
2011,04,23,16,27,16.80
2011,04,23,16,28,16.70
2011,04,23,16,29,16.70
2011,04,23,16,30,16.60
2011,04,23,16,31,16.50
2011,04,23,16,32,16.40
2011,04,23,16,33,16.30
2011,04,23,16,34,16.20
2011,04,23,16,35,16.20
2011,04,23,16,36,16.10
2011,04,23,16,37,16.20
2011,04,23,16,38,16.20
2011,04,23,16,39,16.30
2011,04,23,16,40,16.30
2011,04,23,16,41,16.40
2011,04,23,16,42,16.40
2011,04,23,16,43,16.40
2011,04,23,16,44,16.40
2011,04,23,16,45,16.50
2011,04,23,16,46,16.60
2011,04,23,16,47,16.60
2011,04,23,16,48,16.60
2011,04,23,16,49,16.70
2011,04,23,16,50,16.70
2011,04,23,16,51,16.70
2011,04,23,16,52,16.70
2011,04,23,16,53,16.70
2011,04,23,16,54,16.70
2011,04,23,16,55,16.70
2011,04,23,16,56,16.70
2011,04,23,16,57,16.70
2011,04,23,16,58,16.70
2011,04,23,16,59,16.70
2011,04,23,17,00,16.70
2011,04,23,17,01,16.60
2011,04,23,17,02,16.50
2011,04,23,17,03,16.40
2011,04,23,17,04,16.40
2011,04,23,17,05,16.40
2011,04,23,17,06,16.50
2011,04,23,17,07,16.60
2011,04,23,17,08,16.60
2011,04,23,17,09,16.60
2011,04,23,17,10,16.60
2011,04,23,17,11,16.60
2011,04,23,17,12,16.60
2011,04,23,17,13,16.60
2011,04,23,17,14,16.60
2011,04,23,17,15,16.60
2011,04,23,17,16,16.70
2011,04,23,17,17,16.70
2011,04,23,17,18,16.70
2011,04,23,17,19,16.80
2011,04,23,17,20,16.80
2011,04,23,17,21,16.90
2011,04,23,17,22,16.90
2011,04,23,17,23,17.00
2011,04,23,17,24,17.00
2011,04,23,17,25,17.00
2011,04,23,17,26,17.00
2011,04,23,17,27,17.00
2011,04,23,17,28,16.90
2011,04,23,17,29,16.90
2011,04,23,17,30,16.70
2011,04,23,17,31,16.70
2011,04,23,17,32,16.60
2011,04,23,17,33,16.50
2011,04,23,17,34,16.40
2011,04,23,17,35,16.40
2011,04,23,17,36,16.40
2011,04,23,17,37,16.40
2011,04,23,17,38,16.40
2011,04,23,17,39,16.40
2011,04,23,17,40,16.40
2011,04,23,17,41,16.40
2011,04,23,17,42,16.40
2011,04,23,17,43,16.40
2011,04,23,17,44,16.40
2011,04,23,17,45,16.40